Regional Weather Roundup
Issued by NWS

Home | Current Version | Previous Version | Text Only | Print | Product List | Glossary On
Versions: 1 2 3 4 5 6 7 8 9 10 11 12 13 14 15 16 17 18 19 20 21 22 23 24 25 26 27 28 29 30 31 32 33 34 35 36 37 38 39 40 41 42 43 44 45 46 47 48 49 50
000
ASUS43 KLSX 280110
RWRMO

WEATHER SUMMARY FOR MISSOURI
NATIONAL WEATHER SERVICE SPRINGFIELD MO
800 PM CDT SAT AUG 27 2016

NOTE: "FAIR" INDICATES FEW OR NO CLOUDS BELOW 12,000 FEET WITH NO
       SIGNIFICANT WEATHER AND/OR OBSTRUCTIONS TO VISIBILITY.
       CURRENT SKY AND/OR WEATHER CONDITIONS ARE NOT AVAILABLE FOR
       CHILLICOTHE AND FARMINGTON.

MOZ001>031-035>038-043-044-053-054-280200-
...NORTHERN AND WESTERN MISSOURI...

CITY           SKY/WX    TMP DP  RH WIND       PRES   REMARKS
KANSAS CTY INT MOCLDY    80  68  66 SE10      30.01S
KANSAS C DTWN  CLOUDY    76  66  71 CALM      29.99F
LEE`S SUMMIT   CLEAR     80  71  74 CALM      30.01S
ST JOSEPH      PTCLDY    78  73  84 N3        30.00R HAZE
KIRKSVILLE     CLEAR     76  71  85 CALM      30.03S

$$
MOZ066>068-077>081-088>096-101>105-280200-
...SOUTHWEST MISSOURI...

CITY           SKY/WX    TMP DP  RH WIND       PRES   REMARKS
SPRINGFIELD    PTCLDY    82  71  69 E3        30.04R
JOPLIN         CLEAR     82  71  69 SE6       30.02R
BRANSON        MOCLDY    75  70  83 CALM      30.06R

$$
MOZ032>034-039>042-045>050-055>058-069>072-280200-
...CENTRAL MISSOURI...

CITY           SKY/WX    TMP DP  RH WIND       PRES   REMARKS
COLUMBIA       MOCLDY    82  72  71 SE3       30.04R
JEFFERSON CITY CLOUDY    81  76  84 SE3       30.02R
ROLLA          CLOUDY    78  73  84 NE3       30.05R
SEDALIA        CLEAR     80  72  76 S5        30.04R
WHITEMAN AFB   PTCLDY    79  75  86 S6        30.00S
OSAGE BEACH    PTCLDY    77  73  87 CALM      30.05R

$$
MOZ051-052-059>065-280200-
...EAST CENTRAL MISSOURI...

CITY           SKY/WX    TMP DP  RH WIND       PRES   REMARKS
ST LOUIS INTL  MOCLDY    82  71  69 NE8       30.05R
SPIRIT OF STL  TSTM      79  74  84 NW6       30.03R
ST CHARLES     CLOUDY    75  70  84 NE17G29   30.04S THUNDER

$$
MOZ072>076-082>087-097>100-106>115-280200-
...SOUTH CENTRAL AND SOUTHEAST MISSOURI...

CITY           SKY/WX    TMP DP  RH WIND       PRES   REMARKS
CAPE GIRARDEAU CLEAR     79  74  84 SE3       30.02R
FARMINGTON     CLEAR     80  73  79 SE3       30.07R
POPLAR BLUFF   CLEAR     79  73  82 S3        30.02R
WEST PLAINS    PTCLDY    78  71  79 CALM      30.07R

$$



USA.gov is the U.S. government's official web portal to all federal, state and local government web resources and services.